TimeSAST,TemperatureF,Dew PointF,Humidity,Sea Level PressureIn,VisibilityMPH,Wind Direction,Wind SpeedMPH,Gust SpeedMPH,PrecipitationIn,Events,Conditions,WindDirDegrees,DateUTC
12:00 AM,55.4,53.6,94,30.15,6.2,ESE,6.9,-,N/A,Rain,Light Rain,120,2012-10-20 22:00:00
1:00 AM,55.4,53.6,94,30.12,4.3,SE,12.7,-,N/A,Rain,Light Rain,130,2012-10-20 23:00:00
2:00 AM,56,54,90,30.10,4,ESE,6.9,,,,,120,2012-10-21 00:00:00
2:00 AM,55.4,53.6,94,30.09,3.7,ESE,6.9,-,N/A,Rain,Rain,120,2012-10-21 00:00:00
3:00 AM,57.2,55.4,94,30.06,5.6,SE,19.6,-,N/A,Rain,Light Rain,130,2012-10-21 01:00:00
4:00 AM,57.2,55.4,94,30.04,4.3,SE,11.5,-,N/A,Rain,Light Rain,140,2012-10-21 02:00:00
5:00 AM,57,55,91,30.04,4,SSE,12.7,,,Rain,Light Rain,150,2012-10-21 03:00:00
5:00 AM,57.2,55.4,94,30.04,3.7,SSE,12.7,-,N/A,Rain,Light Rain,150,2012-10-21 03:00:00
6:00 AM,57.2,55.4,94,30.04,5.6,SE,8.1,-,N/A,,Mostly Cloudy,130,2012-10-21 04:00:00
7:00 AM,59.0,55.4,88,30.04,6.2,SSE,8.1,-,N/A,,Mostly Cloudy,150,2012-10-21 05:00:00
8:00 AM,59,56,85,30.04,4,South,6.9,,,Rain,Light Rain,190,2012-10-21 06:00:00
8:00 AM,59.0,55.4,88,30.04,2.5,South,6.9,-,N/A,Rain,Light Rain,190,2012-10-21 06:00:00
9:00 AM,60.8,55.4,82,30.04,6.2,SW,8.1,-,N/A,,Mostly Cloudy,220,2012-10-21 07:00:00
10:00 AM,59.0,57.2,94,30.01,5.6,WSW,12.7,-,N/A,,Overcast,250,2012-10-21 08:00:00
11:00 AM,60,55,78,30.02,12,WSW,17.3,,,,Partly Cloudy,240,2012-10-21 09:00:00
11:00 AM,60.8,55.4,82,30.01,6.2,WSW,17.3,-,N/A,,Mostly Cloudy,240,2012-10-21 09:00:00
12:00 PM,59.0,53.6,82,30.01,6.2,SW,13.8,-,N/A,,Mostly Cloudy,220,2012-10-21 10:00:00
1:00 PM,60.8,53.6,77,30.01,6.2,SSW,9.2,-,N/A,,Mostly Cloudy,210,2012-10-21 11:00:00
2:00 PM,64,54,60,30.00,12,West,6.9,,,,Mostly Cloudy,260,2012-10-21 12:00:00
2:00 PM,64.4,53.6,68,29.98,6.2,West,6.9,-,N/A,,Mostly Cloudy,260,2012-10-21 12:00:00
3:00 PM,62.6,53.6,72,29.98,6.2,WSW,10.4,-,N/A,,Mostly Cloudy,240,2012-10-21 13:00:00
4:00 PM,60.8,51.8,72,29.98,6.2,SW,16.1,-,N/A,,Mostly Cloudy,220,2012-10-21 14:00:00
5:00 PM,60,53,72,30.01,12,SW,9.2,,,,Mostly Cloudy,220,2012-10-21 15:00:00
5:00 PM,60.8,53.6,77,30.01,6.2,SW,10.4,-,N/A,,Mostly Cloudy,220,2012-10-21 15:00:00
6:00 PM,60.8,53.6,77,30.01,6.2,SW,3.5,-,N/A,,Scattered Clouds,230,2012-10-21 16:00:00
7:00 PM,59.0,53.6,82,30.01,6.2,NW,5.8,-,N/A,,Partly Cloudy,310,2012-10-21 17:00:00
8:00 PM,57,52,79,30.03,12,NW,6.9,,,,Scattered Clouds,320,2012-10-21 18:00:00
8:00 PM,57.2,51.8,82,30.01,6.2,NW,6.9,-,N/A,,Partly Cloudy,320,2012-10-21 18:00:00
9:00 PM,59.0,51.8,77,30.04,-9999.0,West,10.4,-,N/A,,Clear,270,2012-10-21 19:00:00
10:00 PM,57.2,51.8,82,30.04,-9999.0,West,12.7,-,N/A,,Clear,280,2012-10-21 20:00:00
11:00 PM,59.0,51.8,77,30.04,-9999.0,West,17.3,-,N/A,,Clear,280,2012-10-21 21:00:00